Flag for U.S.A. Weather past 2 weeks in Toledo, Ohio, U.S.A.

Now
36 °F

Low clouds.


Feels Like: 30 °F
Forecast: 41 / 48 °F
Wind: 7 mph from Northeast

Location: Toledo Suburban Airport

Current Time: Mar 31, 2015 at 12:31:38 PM

Latest Report: Mar 31, 2015 at 11:54 AM


Visibility: 7 mi

Pressure: 29.81 "Hg

Humidity: 93%

Dew point: 34 °F

Location of ToledoLocation

Historic Weather in Toledo — Graph

°F

Toledo temperature yesterday

Maximum temperature yesterday: 57 °F (at 3:34 PM)
Minimum temperature yesterday: 37 °F (at 6:14 AM)
Average temperature yesterday: 47 °F

Past Weeks' High & Low Weather Summary

 TemperatureHumidityPressure
High64 °F (Mar 16, 3:54 PM)93% (Mar 21, 12:15 PM)30.36 "Hg (Mar 21, 12:15 PM)
Low18 °F (Mar 28, 3:54 AM)22% (Mar 17, 11:55 AM)29.68 "Hg (Mar 31, 7:15 AM)
Average37 °F62%30.11 "Hg
* Reported Mar 16 11:14 AM — Mar 31 11:34 AM, Toledo, Weather by CustomWeather, © 2015

Note: Actual official high and low records may vary slightly from our data, if they occured in-between our weather recording intervals... More about our weather records

Advertising

Toledo weather history for previous 24 hours

 ConditionsComfort  
Time TempWeatherWind HumidityBarometerVisibility
11:34 AM
Tue, Mar 31
37 °FFog.10 mph87%29.79 "Hg5 mi
11:15 AM37 °FFog.8 mph87%29.77 "Hg4 mi
10:54 AM37 °FFog.10 mph93%29.76 "Hg5 mi
10:34 AM37 °FFog.9 mph93%29.75 "Hg5 mi
10:15 AM37 °FFog.10 mph93%29.73 "Hg4 mi
9:55 AM37 °FFog.7 mph93%29.72 "Hg3 mi
9:34 AM37 °FFog.5 mph93%29.70 "Hg3 mi
9:15 AM39 °FFog.6 mph87%29.70 "Hg4 mi
8:55 AM41 °FScattered clouds.8 mph87%29.69 "Hg7 mi
8:34 AM39 °FFog.3 mph87%29.68 "Hg4 mi
8:15 AM39 °FFog.3 mph87%29.68 "Hg4 mi
7:54 AM39 °FFog.No wind87%29.68 "Hg3 mi
7:34 AM39 °FFog.3 mph87%29.68 "Hg3 mi
7:15 AM39 °FFog.7 mph87%29.68 "Hg5 mi
6:55 AM41 °FMostly cloudy.6 mph87%29.69 "Hg7 mi
6:34 AM41 °FFog.3 mph87%29.71 "Hg5 mi
6:14 AM41 °FFog.9 mph87%29.71 "Hg5 mi
5:54 AM43 °FFog.6 mph87%29.72 "Hg5 mi
5:34 AM43 °FFog.5 mph87%29.74 "Hg5 mi
5:15 AM43 °FLight rain. Mostly cloudy.6 mph93%29.74 "Hg7 mi
4:54 AM43 °FMostly cloudy.No wind93%29.76 "Hg7 mi
4:34 AM43 °FMostly cloudy.3 mph93%29.77 "Hg7 mi
4:15 AM43 °FMostly cloudy.9 mph93%29.76 "Hg7 mi
3:55 AM43 °FFog.5 mph93%29.78 "Hg5 mi
3:34 AM43 °FFog.5 mph93%29.79 "Hg5 mi
3:15 AM43 °FFog.6 mph93%29.82 "Hg5 mi
2:55 AM43 °FFog.No wind93%29.85 "Hg5 mi
2:34 AM43 °FOvercast.No wind93%29.86 "Hg7 mi
2:14 AM43 °FFog.3 mph93%29.86 "Hg5 mi
1:54 AM43 °FDrizzle. Mostly cloudy.No wind93%29.88 "Hg5 mi
1:34 AM43 °FRain. Overcast.No wind93%29.90 "Hg5 mi
1:15 AM43 °FLight rain. Overcast.No wind93%29.90 "Hg4 mi
12:54 AM45 °FLight rain. Mostly cloudy.No wind87%29.93 "Hg7 mi
12:34 AM45 °FLight rain. Mostly cloudy.No wind87%29.95 "Hg7 mi
12:15 AM45 °FLight rain. Overcast.3 mph81%29.96 "Hg7 mi
11:54 PM
Mon, Mar 30
46 °FLight rain. Mostly cloudy.8 mph71%29.97 "Hg10 mi
11:34 PM50 °FDrizzle. Overcast.12 mph58%29.97 "Hg10 mi
11:15 PM50 °FOvercast.10 mph50%29.97 "Hg10 mi
10:55 PM48 °FMostly cloudy.7 mph50%29.97 "Hg10 mi
10:34 PM45 °FPassing clouds.No wind61%29.98 "Hg10 mi
10:14 PM45 °FPassing clouds.No wind57%29.98 "Hg10 mi
9:54 PM48 °FMostly cloudy.No wind50%29.98 "Hg10 mi
9:34 PM46 °FMostly cloudy.No wind57%29.97 "Hg10 mi
9:15 PM46 °FMostly cloudy.No wind53%29.95 "Hg10 mi
8:54 PM50 °FBroken clouds.No wind43%29.95 "Hg10 mi
8:34 PM50 °FScattered clouds.No wind43%29.94 "Hg10 mi
8:15 PM52 °FSunny.6 mph38%29.94 "Hg10 mi
7:34 PM54 °FScattered clouds.8 mph35%29.95 "Hg10 mi
7:14 PM54 °FScattered clouds.7 mph35%29.95 "Hg10 mi
6:55 PM54 °FScattered clouds.9 mph35%29.94 "Hg10 mi
6:34 PM55 °FScattered clouds.10 mph31%29.94 "Hg10 mi
6:14 PM55 °FSunny.14 mph28%29.93 "Hg10 mi
5:54 PM55 °FScattered clouds.13 mph26%29.93 "Hg10 mi
5:34 PM57 °FSunny.14 mph25%29.93 "Hg10 mi
5:15 PM55 °FSunny.12 mph24%29.92 "Hg10 mi
4:54 PM57 °FSunny.18 mph25%29.92 "Hg10 mi
4:34 PM57 °FScattered clouds.16 mph27%29.92 "Hg10 mi
4:15 PM55 °FScattered clouds.14 mph28%29.93 "Hg10 mi
3:54 PM57 °FPartly sunny.16 mph29%29.92 "Hg10 mi
3:34 PM57 °FScattered clouds.18 mph29%29.93 "Hg10 mi
3:15 PM55 °FBroken clouds.20 mph28%29.93 "Hg10 mi
2:55 PM55 °FBroken clouds.22 mph31%29.93 "Hg10 mi
2:34 PM55 °FPartly sunny.16 mph28%29.94 "Hg10 mi
2:14 PM54 °FScattered clouds.13 mph33%29.94 "Hg10 mi
1:55 PM54 °FScattered clouds.16 mph35%29.94 "Hg10 mi
1:34 PM54 °FScattered clouds.21 mph35%29.95 "Hg10 mi
1:14 PM54 °FScattered clouds.18 mph33%29.95 "Hg10 mi
12:54 PM54 °FSunny.16 mph30%29.96 "Hg10 mi
12:34 PM54 °FSunny.17 mph30%29.96 "Hg10 mi
12:15 PM54 °FSunny.15 mph33%29.96 "Hg10 mi
Weather by CustomWeather, © 2015

See weather overviewHow to use our weather pages